TimeCDT,TemperatureF,Dew PointF,Humidity,Sea Level PressureIn,VisibilityMPH,Wind Direction,Wind SpeedMPH,Gust SpeedMPH,PrecipitationIn,Events,Conditions,WindDirDegrees,DateUTC
12:52 AM,63.0,57.9,84,29.92,10.0,South,4.6,-,N/A,,Mostly Cloudy,180,2013-08-02 05:52:00
1:52 AM,63.0,60.1,90,29.91,10.0,South,4.6,-,0.03,,Mostly Cloudy,190,2013-08-02 06:52:00
2:52 AM,63.0,59.0,87,29.91,10.0,North,8.1,-,N/A,,Mostly Cloudy,10,2013-08-02 07:52:00
3:52 AM,63.0,60.1,90,29.91,10.0,Calm,Calm,-,N/A,,Overcast,0,2013-08-02 08:52:00
4:52 AM,63.0,60.1,90,29.89,10.0,East,4.6,-,0.07,Rain,Light Rain,90,2013-08-02 09:52:00
5:52 AM,63.0,60.1,90,29.88,10.0,SSE,4.6,-,0.00,,Mostly Cloudy,150,2013-08-02 10:52:00
6:52 AM,64.0,60.1,87,29.88,10.0,Variable,5.8,-,N/A,,Overcast,0,2013-08-02 11:52:00
7:52 AM,66.0,62.1,87,29.88,10.0,SSW,11.5,-,0.02,,Overcast,210,2013-08-02 12:52:00
8:52 AM,68.0,64.0,87,29.88,8.0,WSW,6.9,-,0.01,Rain,Light Rain,250,2013-08-02 13:52:00
9:52 AM,73.0,66.9,81,29.87,10.0,WSW,8.1,-,0.00,,Mostly Cloudy,240,2013-08-02 14:52:00
10:52 AM,77.0,68.0,74,29.87,10.0,SW,8.1,-,N/A,,Clear,230,2013-08-02 15:52:00
11:52 AM,81.0,66.9,62,29.86,10.0,West,9.2,-,N/A,,Clear,270,2013-08-02 16:52:00
12:52 PM,82.9,68.0,60,29.86,10.0,West,9.2,-,N/A,,Scattered Clouds,280,2013-08-02 17:52:00
1:52 PM,81.0,66.9,62,29.86,10.0,WNW,9.2,-,N/A,,Mostly Cloudy,290,2013-08-02 18:52:00
2:52 PM,82.0,66.9,60,29.86,10.0,WNW,10.4,-,N/A,,Mostly Cloudy,290,2013-08-02 19:52:00
3:52 PM,82.0,66.9,60,29.85,10.0,WNW,10.4,-,N/A,,Partly Cloudy,300,2013-08-02 20:52:00
4:52 PM,81.0,64.9,58,29.85,10.0,WNW,12.7,-,N/A,,Mostly Cloudy,300,2013-08-02 21:52:00
5:52 PM,80.1,64.0,58,29.85,10.0,NW,8.1,-,N/A,,Clear,310,2013-08-02 22:52:00
6:52 PM,78.1,63.0,60,29.86,10.0,NNW,6.9,-,N/A,,Partly Cloudy,340,2013-08-02 23:52:00
7:52 PM,75.9,64.0,67,29.88,10.0,NNW,6.9,-,N/A,,Partly Cloudy,340,2013-08-03 00:52:00
8:52 PM,75.0,60.1,60,29.91,10.0,NNW,8.1,-,N/A,,Scattered Clouds,340,2013-08-03 01:52:00
9:52 PM,73.0,59.0,61,29.91,10.0,North,4.6,-,N/A,,Partly Cloudy,350,2013-08-03 02:52:00
10:52 PM,72.0,60.1,66,29.93,10.0,Calm,Calm,-,N/A,,Overcast,0,2013-08-03 03:52:00
11:52 PM,70.0,60.1,71,29.94,10.0,NNE,3.5,-,N/A,,Overcast,20,2013-08-03 04:52:00